Location: Unspecified
(54.1780°N, 0.0000°E)
Time: 00:36:44
(UTC+00:00)

Transit 2A - Pass Details

Date: 20 June 2019
Orbit: 596 x 962 km, 66.7° (Epoch: 18 August)

Event Time Altitude Azimuth Distance (km) Brightness Sun altitude
Rises 05:02:49 0° 289° (WNW) 3,633 9.1 10.7°
Reaches altitude 10° 05:05:57 10° 302° (WNW) 2,660 8.5 11.2°
Maximum altitude 05:10:58 25° 356° (N) 1,755 8.2 11.8°
Drops below altitude 10° 05:15:43 10° 51° (NE) 2,503 10.6 12.5°
Sets 05:18:34 0° 65° (ENE) 3,376 11.4 12.9°
